HS5SQI-2 Weather Reports


Display with metric or nautical units.
time (UTC)temp
F
wind
direction
speed
MPH
gust
MPH
rain 1hr
in
rain 24hr
in
rain mn
in
humidity
%
barometer
mb
20260505013944 88 0 0.0 0.0 0.00 0.00 0.00 71 1009.0
20260505012922 88 0 0.0 0.0 0.00 0.00 0.00 73 1009.0
20260505011900 87 0 0.0 0.0 0.00 0.00 0.00 76 1009.0
20260505010838 87 0 0.0 0.0 0.00 0.00 0.00 76 1009.0
20260505005816 86 0 0.0 0.0 0.00 0.00 0.00 77 1008.0
20260505004754 86 0 0.0 0.0 0.00 0.00 0.00 78 1008.0
20260505003732 86 0 0.0 0.0 0.00 0.00 0.00 78 1008.0
20260505002710 84 0 0.0 0.0 0.00 0.00 0.00 80 1008.0
20260505001647 85 0 0.0 0.0 0.00 0.00 0.00 80 1008.0
20260505000625 84 0 0.0 0.0 0.00 0.00 0.00 81 1008.0
20260504235603 84 0 0.0 0.0 0.00 0.00 0.00 81 1008.0
20260504234541 84 0 0.0 0.0 0.00 0.00 0.00 82 1008.0
20260504233519 84 0 0.0 0.0 0.00 0.00 0.00 82 1008.0
20260504232457 84 0 0.0 0.0 0.00 0.00 0.00 81 1008.0
20260504231435 83 0 0.0 0.0 0.00 0.00 0.00 82 1008.0
20260504230413 84 0 0.0 0.0 0.00 0.00 0.00 80 1007.0
20260504225351 84 0 0.0 0.0 0.00 0.00 0.00 80 1007.0
20260504224329 84 0 0.0 0.0 0.00 0.00 0.00 80 1007.0
20260504223307 84 0 0.0 0.0 0.00 0.00 0.00 82 1007.0
20260504222245 83 0 0.0 0.0 0.00 0.00 0.00 82 1007.0
20260504221223 84 0 0.0 0.0 0.00 0.00 0.00 81 1007.0
20260504220201 84 0 0.0 0.0 0.00 0.00 0.00 82 1007.0
20260504215139 84 0 0.0 0.0 0.00 0.00 0.00 82 1007.0
20260504214117 84 0 0.0 0.0 0.00 0.00 0.00 81 1007.0
20260504213055 83 0 0.0 0.0 0.00 0.00 0.00 83 1007.0
20260504212033 84 0 0.0 0.0 0.00 0.00 0.00 83 1007.0
20260504211011 84 0 0.0 0.0 0.00 0.00 0.00 82 1007.0
20260504205949 83 0 0.0 0.0 0.00 0.00 0.00 83 1007.0
20260504204927 84 0 0.0 0.0 0.00 0.00 0.00 82 1007.0
20260504203905 82 0 0.0 0.0 0.00 0.00 0.00 85 1007.0
20260504202843 82 0 0.0 0.0 0.00 0.00 0.00 86 1007.0
20260504201821 84 0 0.0 0.0 0.00 0.00 0.00 83 1007.0
20260504200758 83 0 0.0 0.0 0.00 0.00 0.00 85 1007.0
20260504195736 83 0 0.0 0.0 0.00 0.00 0.00 84 1007.0
20260504194714 83 0 0.0 0.0 0.00 0.00 0.00 84 1007.0
20260504193652 85 0 0.0 0.0 0.00 0.00 0.00 82 1007.0
20260504192630 85 0 0.0 0.0 0.00 0.00 0.00 81 1007.0
20260504191608 84 0 0.0 0.0 0.00 0.00 0.00 82 1007.0
20260504190546 85 0 0.0 0.0 0.00 0.00 0.00 79 1007.0
20260504185524 85 0 0.0 0.0 0.00 0.00 0.00 79 1007.0
20260504184502 83 0 0.0 0.0 0.00 0.00 0.00 84 1008.0
20260504183440 85 0 0.0 0.0 0.00 0.00 0.00 81 1008.0
20260504182418 83 0 0.0 0.0 0.00 0.00 0.00 84 1008.0
20260504181356 84 0 0.0 0.0 0.00 0.00 0.00 82 1008.0
20260504180334 85 0 0.0 0.0 0.00 0.00 0.00 80 1008.0
20260504175312 85 0 0.0 0.0 0.00 0.00 0.00 80 1008.0
20260504174250 85 0 0.0 0.0 0.00 0.00 0.00 79 1008.0
20260504173228 85 0 0.0 0.0 0.00 0.00 0.00 81 1009.0
20260504172206 82 0 0.0 0.0 0.00 0.00 0.00 88 1009.0
20260504171144 83 0 0.0 0.0 0.00 0.00 0.00 85 1009.0
20260504170122 85 0 0.0 0.0 0.00 0.00 0.00 81 1010.0
20260504150720 87 0 0.0 0.0 0.00 0.00 0.00 79 1009.0
20260504140507 87 0 0.0 0.0 0.00 0.00 0.00 80 1008.0
20260504130255 87 0 0.0 0.0 0.00 0.00 0.00 77 1007.0
20260504081238 87 0 0.0 0.0 0.00 0.00 0.00 74 1006.0
20260504080216 88 0 0.0 0.0 0.00 0.00 0.00 73 1006.0
20260504050602 103 0 0.0 0.0 0.00 0.00 0.00 49 1007.0
20260504045540 104 0 0.0 0.0 0.00 0.00 0.00 48 1007.0
20260504044518 104 0 0.0 0.0 0.00 0.00 0.00 50 1007.0
20260504043456 103 0 0.0 0.0 0.00 0.00 0.00 49 1007.0
20260504042433 103 0 0.0 0.0 0.00 0.00 0.00 49 1007.0
20260504041411 104 0 0.0 0.0 0.00 0.00 0.00 50 1008.0
20260504040349 103 0 0.0 0.0 0.00 0.00 0.00 53 1008.0
20260504035327 102 0 0.0 0.0 0.00 0.00 0.00 53 1008.0
20260504034305 102 0 0.0 0.0 0.00 0.00 0.00 54 1008.0
20260504033243 101 0 0.0 0.0 0.00 0.00 0.00 55 1008.0
20260504032221 101 0 0.0 0.0 0.00 0.00 0.00 55 1008.0
20260504031159 100 0 0.0 0.0 0.00 0.00 0.00 58 1008.0
20260504030137 98 0 0.0 0.0 0.00 0.00 0.00 60 1008.0
20260504025115 97 0 0.0 0.0 0.00 0.00 0.00 61 1008.0
20260504024053 97 0 0.0 0.0 0.00 0.00 0.00 61 1008.0
20260504023031 97 0 0.0 0.0 0.00 0.00 0.00 63 1008.0
20260504022009 97 0 0.0 0.0 0.00 0.00 0.00 63 1008.0
20260504020947 97 0 0.0 0.0 0.00 0.00 0.00 63 1008.0
20260504015925 95 0 0.0 0.0 0.00 0.00 0.00 67 1008.0
20260504014903 96 0 0.0 0.0 0.00 0.00 0.00 67 1009.0